Location: Berg
(47.2344°N, 9.5296°E)
Time: 21:46:12
(UTC+00:00)

Meteor 2-10 Rocket - Pass Details

Date: 24 January 2021
Orbit: 733 x 885 km, 81.2° (Epoch: 04 March)

Event Time Altitude Azimuth Distance (km) Brightness Sun altitude
Rises 16:48:11 0° 350° (N) 3,391 6.7 -6.4°
Reaches altitude 10° 16:50:40 10° 352° (N) 2,430 6.0 -6.8°
Maximum altitude 16:56:08 71° 77° (ENE) 845 3.6 -7.7°
Drops below altitude 10° 17:01:20 10° 161° (SSE) 2,312 6.0 -8.5°
Sets 17:03:39 0° 164° (SSE) 3,214 6.8 -8.9°
